Zurück zum Katalog

ONEWEB-0153

AktivKommunikationPO
NORAD 48044·PAYLOAD·🇬🇧 United Kingdom

Gestartet Mar 25, 2021 von Vostochny Cosmodrome

Loading…

Nächste Überflüge (nächste 24 Stunden)

TLE

AktuellSource: CelesTrak SupGP

Epoche: Sep 14, 2026, 20:03 UTC

1 48044C 21025C   26257.83560602 -.00000845  00000+0 -23179-2 0  2571
2 48044  87.8919 302.3892 0001848  98.2361 296.5025 13.13466180    14

Verfolge ONEWEB-0153 in Echtzeit mit AllMySat

Download on the App Store